SWR1244 LSGG-LGIR

Flight info

Callsign SWR1244
Flight time N/A
Altitude 37000
Route MEDAM1A/22 MEDAM DCT NITAM DCT MOGBO DCT KODOK DCT TOP DCT LURUT DCT IBENI DCT KOFER DCT PINDO DCT PIKOS DCT KEA UL607 GIVIS T514 XAVIS
Aircraft A320/M-SDE3FGHIRWY/LB1

Departure

Time N/A
Airport Geneva International Airport (LSGG)

Arrival

Time 2026-05-04 18:09
Airport Heraklion International Nikos Kazantzakis Airport (LGIR)
Time Latitude Longitude Altitude Speed Heading
2026-05-04 17:01 41.71768 19.00677 37134 ft 486 kts 128°
2026-05-04 17:02 41.67469 19.07661 37131 ft 486 kts 128°
2026-05-04 17:03 41.61017 19.18113 37147 ft 485 kts 128°
2026-05-04 17:03 41.55296 19.27356 37138 ft 485 kts 128°
2026-05-04 17:04 41.46685 19.41214 37143 ft 485 kts 128°
2026-05-04 17:05 41.38061 19.55033 37157 ft 485 kts 128°
2026-05-04 17:06 41.31600 19.65332 37156 ft 485 kts 128°
2026-05-04 17:07 41.25809 19.74549 37139 ft 486 kts 128°
2026-05-04 17:07 41.20771 19.82541 37162 ft 486 kts 128°
2026-05-04 17:08 41.14240 19.92865 37162 ft 486 kts 128°
2026-05-04 17:09 41.09895 19.99735 37151 ft 486 kts 128°
2026-05-04 17:09 41.05544 20.06591 37151 ft 486 kts 128°
2026-05-04 17:10 40.94673 20.23621 37153 ft 485 kts 128°
2026-05-04 17:11 40.90297 20.30442 37151 ft 485 kts 128°
2026-05-04 17:12 40.83767 20.40640 37138 ft 484 kts 128°
2026-05-04 17:13 40.72871 20.57507 37132 ft 483 kts 128°
2026-05-04 17:14 40.64119 20.71015 37111 ft 484 kts 129°
2026-05-04 17:15 40.57525 20.81118 37134 ft 485 kts 129°
2026-05-04 17:16 40.48772 20.94496 37127 ft 486 kts 130°
2026-05-04 17:17 40.38671 21.06428 37111 ft 487 kts 137°
2026-05-04 17:18 40.28466 21.18161 37116 ft 488 kts 137°
2026-05-04 17:19 40.18239 21.29884 37098 ft 489 kts 137°
2026-05-04 17:20 40.08014 21.41552 37096 ft 490 kts 138°
2026-05-04 17:20 40.00286 21.50320 37103 ft 490 kts 138°
2026-05-04 17:21 39.90108 21.62101 37100 ft 490 kts 136°
2026-05-04 17:22 39.85122 21.68160 37102 ft 491 kts 136°
2026-05-04 17:23 39.75067 21.80206 37121 ft 491 kts 136°
2026-05-04 17:24 39.67526 21.89121 37120 ft 491 kts 136°
2026-05-04 17:25 39.57408 22.01100 37103 ft 493 kts 136°
2026-05-04 17:26 39.47242 22.13070 37131 ft 493 kts 136°
2026-05-04 17:27 39.34516 22.27967 37118 ft 495 kts 136°
2026-05-04 17:28 39.24277 22.39927 37104 ft 496 kts 136°
2026-05-04 17:29 39.08911 22.57764 37109 ft 497 kts 137°
2026-05-04 17:31 38.96010 22.72636 37118 ft 498 kts 137°
2026-05-04 17:32 38.83085 22.87501 37145 ft 499 kts 137°
2026-05-04 17:33 38.72741 22.99309 37131 ft 500 kts 137°
2026-05-04 17:34 38.62349 23.11166 37145 ft 500 kts 137°
2026-05-04 17:35 38.49326 23.25908 37131 ft 500 kts 137°
2026-05-04 17:36 38.44139 23.31764 37128 ft 500 kts 137°
2026-05-04 17:36 38.38914 23.37655 37136 ft 501 kts 137°
2026-05-04 17:37 38.33687 23.43537 37160 ft 501 kts 137°
2026-05-04 17:37 38.28455 23.49409 37157 ft 501 kts 137°
2026-05-04 17:38 38.23226 23.55273 37152 ft 501 kts 137°
2026-05-04 17:38 38.18023 23.61083 37124 ft 501 kts 137°
2026-05-04 17:39 38.10222 23.69783 37127 ft 501 kts 137°
2026-05-04 17:39 38.04941 23.75657 37153 ft 500 kts 137°
2026-05-04 17:40 37.99719 23.81449 37154 ft 499 kts 137°
2026-05-04 17:40 37.94475 23.87269 37141 ft 499 kts 138°
2026-05-04 17:41 37.89241 23.93062 37131 ft 499 kts 138°
2026-05-04 17:41 37.84043 23.98799 37127 ft 500 kts 138°
2026-05-04 17:42 37.78783 24.04585 37128 ft 500 kts 138°
2026-05-04 17:42 37.73536 24.10349 37156 ft 500 kts 138°
2026-05-04 17:43 37.68277 24.16126 37148 ft 499 kts 138°
2026-05-04 17:43 37.63053 24.21848 37138 ft 500 kts 138°
2026-05-04 17:44 37.57808 24.27575 37131 ft 500 kts 138°
2026-05-04 17:44 37.52130 24.32712 37131 ft 501 kts 148°
2026-05-04 17:45 37.46214 24.37352 37134 ft 501 kts 148°
2026-05-04 17:45 37.40281 24.41995 37149 ft 500 kts 148°
2026-05-04 17:46 37.34415 24.46593 37136 ft 500 kts 148°
2026-05-04 17:46 37.28507 24.51212 37133 ft 501 kts 148°
2026-05-04 17:47 37.22575 24.55849 37128 ft 501 kts 148°
2026-05-04 17:47 37.16637 24.60473 37130 ft 501 kts 149°
2026-05-04 17:48 37.10701 24.65072 37114 ft 502 kts 149°
2026-05-04 17:48 37.04772 24.69671 37112 ft 503 kts 149°
2026-05-04 17:49 36.98823 24.74285 37118 ft 504 kts 149°
2026-05-04 17:49 36.92893 24.78880 37119 ft 504 kts 149°
2026-05-04 17:50 36.86914 24.83508 37108 ft 505 kts 149°
2026-05-04 17:50 36.80940 24.88130 37106 ft 506 kts 149°
2026-05-04 17:51 36.75959 24.91972 37107 ft 507 kts 149°
2026-05-04 17:51 36.69962 24.96588 37110 ft 507 kts 149°
2026-05-04 17:52 36.63959 25.01208 37128 ft 508 kts 149°
2026-05-04 17:52 36.57891 25.05854 36852 ft 510 kts 149°
2026-05-04 17:53 36.54858 25.08169 35589 ft 513 kts 149°
2026-05-04 17:53 36.51803 25.10499 34080 ft 519 kts 148°
2026-05-04 17:53 36.48704 25.12865 32384 ft 523 kts 148°
2026-05-04 17:53 36.45613 25.15225 30951 ft 519 kts 148°
2026-05-04 17:54 36.42555 25.17560 29493 ft 511 kts 147°
2026-05-04 17:54 36.39557 25.19846 27767 ft 505 kts 147°
2026-05-04 17:54 36.36589 25.22104 26649 ft 489 kts 147°
2026-05-04 17:54 36.33802 25.24219 25911 ft 468 kts 147°
2026-05-04 17:55 36.31048 25.26310 25087 ft 452 kts 147°
2026-05-04 17:55 36.28407 25.28314 24320 ft 437 kts 147°
2026-05-04 17:55 36.25877 25.30229 23568 ft 430 kts 147°
2026-05-04 17:55 36.23333 25.32155 22776 ft 425 kts 147°
2026-05-04 17:56 36.20812 25.34062 22101 ft 420 kts 147°
2026-05-04 17:56 36.18338 25.35932 21438 ft 415 kts 147°
2026-05-04 17:56 36.15871 25.37797 20795 ft 411 kts 147°
2026-05-04 17:56 36.13405 25.39608 20167 ft 412 kts 150°
2026-05-04 17:57 36.10807 25.41073 19648 ft 408 kts 158°
2026-05-04 17:57 36.08123 25.42186 19135 ft 405 kts 161°
2026-05-04 17:57 36.05454 25.43253 18656 ft 402 kts 161°
2026-05-04 17:57 36.02803 25.44319 18136 ft 399 kts 161°
2026-05-04 17:58 36.00180 25.45377 17664 ft 395 kts 161°
2026-05-04 17:58 35.97545 25.46205 16755 ft 402 kts 173°
2026-05-04 17:58 35.94718 25.46126 15658 ft 412 kts 187°
2026-05-04 17:58 35.91838 25.45721 14570 ft 421 kts 187°
2026-05-04 17:59 35.88899 25.45292 13744 ft 422 kts 187°
2026-05-04 17:59 35.86005 25.44866 13093 ft 416 kts 187°
2026-05-04 17:59 35.80313 25.44044 11576 ft 410 kts 187°
2026-05-04 18:00 35.77467 25.43638 10884 ft 407 kts 188°
2026-05-04 18:00 35.74720 25.43252 10783 ft 386 kts 188°
2026-05-04 18:00 35.72114 25.42893 10686 ft 368 kts 188°
2026-05-04 18:00 35.69620 25.42550 10534 ft 353 kts 188°
2026-05-04 18:01 35.67218 25.42217 10381 ft 341 kts 188°
2026-05-04 18:01 35.64906 25.41892 10231 ft 329 kts 188°
2026-05-04 18:01 35.62654 25.41573 10055 ft 324 kts 188°
2026-05-04 18:02 35.58048 25.40915 8518 ft 341 kts 189°
2026-05-04 18:02 35.55673 25.40576 7816 ft 345 kts 189°
2026-05-04 18:02 35.53321 25.40246 7115 ft 335 kts 189°
2026-05-04 18:02 35.51053 25.39932 6456 ft 327 kts 189°
2026-05-04 18:03 35.48818 25.39626 5767 ft 319 kts 189°
2026-05-04 18:03 35.46650 25.39357 5255 ft 305 kts 183°
2026-05-04 18:03 35.44630 25.39637 5185 ft 279 kts 165°
2026-05-04 18:03 35.42906 25.40509 5120 ft 262 kts 149°
2026-05-04 18:04 35.41317 25.41595 4933 ft 260 kts 150°
2026-05-04 18:04 35.39745 25.42669 4794 ft 258 kts 150°
2026-05-04 18:04 35.36420 25.43394 4549 ft 246 kts 208°
2026-05-04 18:05 35.35155 25.42091 4162 ft 237 kts 244°
2026-05-04 18:05 35.34444 25.40307 3811 ft 228 kts 249°
2026-05-04 18:05 35.33784 25.38575 3488 ft 219 kts 249°
2026-05-04 18:05 35.33157 25.36937 3172 ft 211 kts 249°
2026-05-04 18:06 35.32897 25.33621 2650 ft 188 kts 277°
2026-05-04 18:06 35.33008 25.32058 2396 ft 180 kts 277°
2026-05-04 18:06 35.33113 25.30560 2148 ft 171 kts 276°
2026-05-04 18:07 35.33207 25.29191 1927 ft 152 kts 277°
2026-05-04 18:07 35.33291 25.27970 1714 ft 138 kts 276°
2026-05-04 18:07 35.33370 25.26821 1497 ft 133 kts 276°
2026-05-04 18:07 35.33446 25.25694 1301 ft 132 kts 277°
2026-05-04 18:08 35.33523 25.24572 1097 ft 132 kts 278°
2026-05-04 18:08 35.33599 25.23471 904 ft 127 kts 278°
2026-05-04 18:08 35.33681 25.22391 700 ft 127 kts 279°
2026-05-04 18:08 35.33753 25.21319 567 ft 127 kts 277°
2026-05-04 18:09 35.33893 25.19196 160 ft 125 kts 278°
2026-05-04 18:09 35.34004 25.17639 93 ft 49 kts 275°
2026-05-04 18:10 35.34028 25.17256 85 ft 39 kts 267°
2026-05-04 18:10 35.33960 25.17054 71 ft 17 kts 211°
2026-05-04 18:10 35.33898 25.17085 75 ft 9 kts 129°
2026-05-04 18:10 35.33896 25.17140 83 ft 5 kts 71°
2026-05-04 18:11 35.33911 25.17185 84 ft 9 kts 68°
2026-05-04 18:11 35.33928 25.17252 83 ft 6 kts 90°
2026-05-04 18:11 35.33923 25.17315 84 ft 10 kts 95°
2026-05-04 18:11 35.33918 25.17406 86 ft 9 kts 92°
2026-05-04 18:12 35.33912 25.17505 90 ft 13 kts 94°
2026-05-04 18:12 35.33904 25.17620 91 ft 12 kts 95°
2026-05-04 18:12 35.33897 25.17710 95 ft 7 kts 96°
2026-05-04 18:12 35.33895 25.17722 94 ft 5 kts 103°
2026-05-04 18:13 35.33878 25.17741 93 ft 0 kts 146°
2026-05-04 18:15 35.33867 25.17744 93 ft 7 kts 174°
2026-05-04 18:15 35.33864 25.17668 91 ft 7 kts 321°
2026-05-04 18:15 35.33868 25.17664 91 ft 0 kts 321°